Location: Coupvray
(48.8929°N, 2.7967°E)
Time: 10:51:30
(UTC+00:00)

Altair 2 - Pass Details

Date: 26 January 2021
Orbit: 837 x 949 km, 90.2° (Epoch: 26 February)

Event Time Altitude Azimuth Distance (km) Brightness Sun altitude
Rises 04:24:30 0° 13° (NNE) 3,472 11.1 -29.8°
Reaches altitude 10° 04:27:36 10° 30° (NNE) 2,549 10.6 -29.3°
Maximum altitude 04:31:43 20° 76° (ENE) 1,959 10.3 -28.6°
Drops below altitude 10° 04:35:52 10° 122° (ESE) 2,592 10.9 -27.9°
Sets 04:39:03 0° 139° (SE) 3,549 11.5 -27.4°
